Flag for Norway Weather past 2 weeks in Bergen, Norway

Now
64 °F

Mild.


Feels Like: 64 °F
Forecast: 51 / 58 °F
Wind: 1 mph from Southeast

Location: Bergen / Florida

Current Time: Sep 19, 2014 at 7:52:27 PM

Latest Report: Sep 19, 2014 at 7:00 PM


Visibility: N/A

Pressure: 30.01 "Hg

Humidity: 60%

Dew point: 50 °F

Location of BergenLocation

Historic Weather in Bergen — Graph

°F

Bergen temperature yesterday

Maximum temperature yesterday: 68 °F (at 2:00 PM)
Minimum temperature yesterday: 47 °F (at 6:00 AM)
Average temperature yesterday: 56 °F

Past Weeks' High & Low Weather Summary

 TemperatureHumidityPressure
High73 °F (Sep 16, 5:00 PM)91% (Sep 15, 9:00 AM)30.48 "Hg (Sep 15, 9:00 AM)
Low47 °F (Sep 19, 5:00 AM)30% (Sep 16, 5:00 PM)29.74 "Hg (Sep 7, 7:00 AM)
Average58 °F74%30.16 "Hg
* Reported Sep 4 6:00 PM — Sep 19 6:00 PM, Bergen, Weather by CustomWeather, © 2014

Note: Actual official high and low records may vary slightly from our data, if they occured in-between our weather recording intervals... More about our weather records

Advertising

Bergen weather history for previous 24 hours

 ConditionsComfort  
Time TempWeatherWind HumidityBarometerVisibility
6:00 PM
Sep 19
65 °FMild.1 mph51%30.03 "HgN/A
5:00 PM66 °FOvercast.2 mph50%30.03 "Hg25 mi
4:00 PM68 °FMild.1 mph47%30.03 "HgN/A
3:00 PM68 °FMild.2 mph44%30.04 "HgN/A
2:00 PM67 °FOvercast.1 mph49%30.05 "Hg34 mi
1:00 PM65 °FMild.1 mph51%30.06 "HgN/A
12:00 PM64 °FMild.1 mph55%30.06 "HgN/A
11:00 AM61 °FPartly sunny.1 mph64%30.07 "Hg31 mi
10:00 AM59 °FCool.No wind65%30.08 "HgN/A
9:00 AM51 °FCool.No wind83%30.08 "HgN/A
8:00 AM49 °FScattered clouds.No wind84%30.08 "Hg34 mi
7:00 AM48 °FCool.No wind84%30.07 "HgN/A
6:00 AM48 °FCool.No wind84%30.07 "HgN/A
5:00 AM47 °FCool.No wind82%30.09 "HgN/A
4:00 AM48 °FCool.No wind82%30.09 "HgN/A
3:00 AM49 °FCool.1 mph81%30.10 "HgN/A
2:00 AM49 °FCool.2 mph83%30.10 "HgN/A
1:00 AM50 °FCool.2 mph81%30.11 "HgN/A
11:00 PM
Sep 18
52 °FPassing clouds.1 mph80%30.12 "Hg31 mi
10:00 PM54 °FCool.1 mph78%30.12 "HgN/A
9:00 PM56 °FCool.1 mph70%30.12 "HgN/A
8:00 PM58 °FCool.2 mph64%30.12 "HgN/A
Weather by CustomWeather, © 2014

See weather overviewHow to use our weather pages